Flag for Palestinian Territories Weather past 2 weeks in Gaza, Gaza Strip, Palestinian Territories

63 °F


Feels Like: 63 °F
Forecast: 67 / 78 °F
Wind: 2 mph from North

Location: Ben Gurion International Airport

Current Time: Nov 27, 2015 at 2:13:13 AM

Latest Report: Nov 27, 2015 at 1:50 AM

Visibility: 10 mi

Pressure: 29.98 "Hg

Humidity: 73%

Dew point: 54 °F

Location of GazaLocation

Historic Weather in Gaza — Graph


Gaza temperature yesterday

Maximum temperature yesterday: 81 °F (at 11:20 AM)
Minimum temperature yesterday: 64 °F (at 4:50 AM)
Average temperature yesterday: 71 °F

Past Weeks' High & Low Weather Summary

High90 °F (Nov 15, 1:50 PM)94% (Nov 16, 11:20 AM)30.18 "Hg (Nov 16, 11:20 AM)
Low54 °F (Nov 14, 5:20 AM)20% (Nov 14, 10:20 AM)29.74 "Hg (Nov 16, 11:50 AM)
Average68 °F56%30.00 "Hg
* Reported Nov 12 12:20 AM — Nov 27 12:50 AM, Gaza, Weather by CustomWeather, © 2015

Note: Actual official high and low records may vary slightly from our data, if they occured in-between our weather recording intervals... More about our weather records


Gaza weather history for previous 24 hours

Time TempWeatherWind HumidityBarometerVisibility
12:50 AM
Fri, Nov 27
64 °FClear.2 mph64%29.98 "Hg10 mi
12:20 AM64 °FClear.3 mph64%29.98 "Hg10 mi
11:50 PM
Thu, Nov 26
64 °FClear.1 mph68%29.98 "Hg10 mi
11:20 PM64 °FClear.1 mph60%29.95 "Hg10 mi
10:50 PM64 °FClear.3 mph64%29.95 "Hg10 mi
10:20 PM64 °FClear.2 mph68%29.95 "Hg10 mi
9:50 PM66 °FClear.1 mph56%29.95 "Hg10 mi
9:20 PM66 °FClear.1 mph56%29.95 "Hg10 mi
8:50 PM66 °FClear.1 mph56%29.95 "Hg10 mi
8:20 PM68 °FClear.5 mph53%29.95 "Hg10 mi
7:50 PM68 °FClear.5 mph53%29.95 "Hg10 mi
7:20 PM68 °FClear.5 mph53%29.95 "Hg10 mi
6:50 PM68 °FClear.5 mph56%29.95 "Hg10 mi
6:20 PM70 °FClear.6 mph50%29.95 "Hg10 mi
5:50 PM72 °FClear.6 mph47%29.92 "Hg10 mi
5:20 PM72 °FClear.6 mph50%29.92 "Hg10 mi
4:50 PM73 °FClear.7 mph44%29.92 "Hg10 mi
4:20 PM75 °FSunny.3 mph44%29.92 "Hg10 mi
3:50 PM75 °FSunny.7 mph41%29.92 "Hg10 mi
3:20 PM77 °FSunny.8 mph39%29.89 "Hg10 mi
2:50 PM77 °FSunny.9 mph36%29.89 "Hg10 mi
2:20 PM77 °FSunny.9 mph34%29.89 "Hg10 mi
1:50 PM79 °FSunny.10 mph34%29.89 "Hg10 mi
1:20 PM79 °FSunny.10 mph34%29.89 "Hg10 mi
12:50 PM81 °FSunny.9 mph30%29.89 "Hg10 mi
12:20 PM81 °FSunny.9 mph30%29.92 "Hg10 mi
11:50 AM81 °FSunny.9 mph30%29.92 "Hg10 mi
11:20 AM81 °FSunny.9 mph30%29.92 "Hg10 mi
10:50 AM79 °FSunny.9 mph32%29.95 "Hg10 mi
10:20 AM77 °FSunny.7 mph36%29.95 "Hg10 mi
9:50 AM77 °FSunny.9 mph36%29.95 "Hg10 mi
9:20 AM75 °FSunny.8 mph41%29.95 "Hg10 mi
8:20 AM72 °FSunny.2 mph47%29.95 "Hg10 mi
7:50 AM70 °FSunny.6 mph50%29.95 "Hg10 mi
7:20 AM68 °FSunny.3 mph53%29.95 "Hg10 mi
6:50 AM66 °FSunny.3 mph56%29.92 "Hg10 mi
6:20 AM68 °FSunny.6 mph49%29.92 "Hg10 mi
5:50 AM66 °FClear.1 mph56%29.92 "Hg10 mi
5:20 AM66 °FClear.3 mph56%29.92 "Hg10 mi
4:50 AM64 °FClear.2 mph64%29.92 "Hg10 mi
4:20 AM68 °FClear.3 mph53%29.92 "Hg10 mi
3:50 AM70 °FClear.6 mph46%29.92 "Hg10 mi
3:20 AM68 °FClear.2 mph53%29.92 "Hg10 mi
2:20 AM68 °FClear.2 mph49%29.92 "Hg10 mi
Weather by CustomWeather, © 2015

See weather overviewHow to use our weather pages